Theta_e
291 291 291 290 290 290 289 289 289 289 288 288 288 288 288 287 288 287 286 285 284 286 286 285 285 285 284 284 285 284 284 283 279 281 283 285 285 286 289 292 292 297 296
291 291 290 290 289 289 288 288 288 288 288 288 288 288 287 287 287 285 283 283 285 285 285 284 282 283 283 283 283 282 282 283 282 278 282 283 285 286 289 290 291 296 296
290 290 289 289 288 288 288 288 288 287 287 287 288 287 286 286 285 283 283 285 286 286 283 281 281 282 282 283 282 282 281 282 283 281 281 284 285 287 286 289 290 290 292
289 289 289 288 288 287 287 287 287 287 286 286 286 286 285 284 283 282 285 285 285 282 281 283 282 282 282 282 282 281 281 280 281 282 282 282 283 285 286 286 286 285 285
289 289 288 288 287 287 286 286 286 286 286 286 285 283 282 282 283 283 285 285 282 279 281 282 282 282 284 285 283 282 280 279 282 282 281 282 283 284 285 285 285 285 285
288 288 287 287 287 286 285 285 285 285 285 284 283 281 281 282 285 287 287 283 281 279 278 280 281 282 285 286 285 285 286 283 282 282 282 281 283 285 285 285 284 284 282
287 286 287 287 285 284 285 284 284 284 283 281 277 275 274 275 284 287 287 281 277 273 275 278 279 281 285 284 283 285 284 286 287 285 283 283 283 286 285 283 282 281 280
285 285 285 285 284 283 282 282 280 280 281 274 274 273 269 274 285 286 287 274 271 271 271 275 278 280 284 286 279 279 283 285 285 286 286 286 286 285 285 283 282 281 282
285 285 285 285 283 282 282 280 278 283 281 272 272 273 270 274 284 286 283 273 272 270 271 273 276 280 284 287 284 282 285 284 286 287 287 289 289 288 286 283 281 279 277
284 285 284 284 283 282 281 280 281 283 282 278 275 273 273 273 282 286 282 273 270 269 269 272 279 281 284 285 284 284 281 282 280 281 281 280 281 282 283 282 281 278 276
283 283 283 283 283 282 280 278 283 283 281 277 272 274 273 273 273 285 286 271 271 267 268 272 276 282 282 284 284 283 282 278 276 276 277 277 276 276 277 278 278 279 277
282 282 282 282 283 282 281 280 283 282 280 276 269 273 272 272 277 281 284 283 279 270 270 274 276 281 281 282 282 282 281 277 273 271 272 272 273 274 274 275 276 277 277
281 281 281 281 282 282 281 282 282 282 280 276 274 272 272 273 271 282 282 282 281 270 269 276 279 279 279 276 280 280 277 276 274 271 270 272 274 276 276 275 275 274 274
282 280 279 280 280 280 281 282 283 282 281 277 276 275 273 272 272 274 275 272 277 275 275 269 275 276 277 274 272 274 273 272 272 269 272 274 274 274 273 274 272 272 270
280 280 280 280 280 281 282 283 283 283 282 280 280 278 273 273 275 280 278 274 271 276 268 266 268 269 269 269 269 270 271 271 270 268 270 272 271 271 271 272 271 271 269
280 279 280 280 280 281 281 282 285 285 285 286 285 281 279 282 284 283 282 282 282 280 266 262 265 267 267 267 267 267 269 271 271 271 270 270 270 270 270 271 271 269 268
282 281 281 280 280 281 281 281 281 283 286 286 287 286 285 283 284 283 282 281 281 275 263 262 264 266 266 266 266 267 267 268 271 272 272 271 270 270 270 270 269 269 268
282 282 282 281 280 280 281 281 281 280 281 282 286 285 286 285 284 282 283 279 267 267 261 261 261 262 263 263 264 264 265 266 268 270 271 271 271 270 269 269 270 269 268
280 281 282 281 281 281 281 280 280 279 280 277 276 283 283 285 284 282 283 270 266 264 262 261 260 260 261 260 261 261 262 263 264 266 268 270 270 269 268 268 268 268 267
274 279 280 280 280 279 280 280 279 279 279 278 276 278 280 276 277 275 272 275 269 266 266 265 262 259 259 260 259 259 260 260 261 263 263 265 267 268 266 266 266 265 264
273 278 278 275 278 279 279 279 279 280 280 280 279 279 280 279 278 276 275 274 274 270 268 267 264 262 259 259 259 258 259 259 259 262 263 262 262 264 264 264 263 262 262
278 278 278 275 280 278 278 279 278 279 281 281 280 277 284 278 278 276 275 276 275 273 271 269 267 266 264 263 262 261 260 260 258 260 261 262 263 262 262 262 261 260 260
277 277 278 279 279 277 277 279 279 281 281 282 280 279 282 281 279 278 276 276 275 273 271 269 268 265 262 262 262 264 263 263 263 263 262 261 261 261 262 261 260 260 259
274 276 278 280 281 280 281 282 282 282 282 282 282 281 282 284 282 280 278 276 275 273 272 271 270 268 264 262 262 260 260 260 262 262 262 262 260 260 259 259 257 258 259
275 277 279 279 280 281 282 282 282 283 282 283 282 282 283 283 283 281 278 276 274 272 271 270 268 267 266 264 263 261 262 265 262 261 261 261 260 259 259 259 258 256 256
270 271 273 277 280 281 282 282 282 283 282 282 283 283 283 283 281 280 278 276 273 272 270 269 268 267 266 265 264 263 264 265 262 261 262 262 261 259 259 258 257 258 257
Wind_Speed
10 9 9 7 7 6 5 5 5 4 3 4 4 5 6 6 6 6 7 9 11 12 13 13 14 15 11 11 11 11 10 11 15 12 9 11 14 10 13 10 10 11 4
10 10 8 7 7 6 6 6 6 5 3 4 5 5 5 5 6 6 8 8 13 14 13 14 15 11 15 14 11 13 11 11 12 15 13 10 12 9 14 10 8 10 4
9 9 8 8 8 7 7 6 6 5 4 4 5 5 6 5 6 6 6 10 11 12 13 13 14 15 15 12 13 9 6 9 10 10 13 7 7 8 7 10 7 4 3
10 10 10 10 9 7 6 6 6 5 5 5 5 5 5 5 5 5 8 10 10 10 11 12 14 14 17 11 11 6 8 9 10 10 8 7 7 8 7 5 3 2 2
11 11 11 8 7 7 7 6 6 6 5 5 5 5 5 5 3 5 7 9 10 9 10 11 12 15 22 16 9 9 8 7 9 6 7 7 9 3 3 2 1 1 2
12 12 8 8 8 7 7 6 6 5 5 4 4 5 5 3 8 11 11 6 10 8 9 12 13 14 13 17 17 14 11 9 10 6 9 7 8 4 2 1 1 0 1
11 9 10 9 9 8 7 6 6 6 4 4 4 3 6 5 7 10 13 2 5 5 6 10 12 11 10 6 12 9 7 13 12 12 12 10 7 4 2 2 2 3 2
11 11 10 10 9 7 7 6 5 4 4 3 4 5 4 6 7 9 12 3 4 6 2 8 10 13 14 10 6 8 5 7 7 8 7 8 4 1 3 3 6 7 6
11 11 11 11 10 9 9 7 4 5 6 4 3 5 4 7 7 9 7 2 4 7 3 6 9 11 21 23 6 8 5 5 8 17 22 23 16 12 9 6 5 9 7
12 13 11 11 11 11 9 8 5 5 7 4 4 5 6 6 6 8 7 2 3 4 4 5 12 11 20 18 9 8 4 5 6 8 11 14 15 16 20 10 5 5 7
8 9 10 10 10 9 7 4 7 6 6 4 4 5 6 5 4 6 8 2 2 3 2 4 5 16 16 16 14 8 7 7 8 7 7 8 9 10 9 10 11 6 5
9 10 11 11 8 8 10 7 7 7 7 5 3 4 4 5 3 4 6 4 3 1 2 4 3 13 13 17 9 12 11 9 5 5 6 7 8 8 8 10 14 13 12
9 10 9 9 9 9 11 10 9 9 6 5 4 4 4 3 2 4 4 1 3 0 2 4 9 11 12 10 15 14 9 5 5 6 5 6 6 5 7 9 12 16 16
9 9 8 9 9 9 7 7 8 8 7 5 5 5 3 3 3 2 2 2 1 3 5 3 6 8 11 8 5 9 6 5 4 3 4 5 5 6 8 6 9 9 12
5 6 8 8 10 9 9 9 9 9 9 7 8 5 5 4 4 4 2 2 2 3 3 3 3 3 3 4 3 6 5 5 5 3 4 5 6 6 7 6 8 9 11
7 7 7 7 7 7 8 7 17 14 14 16 11 9 4 6 7 4 3 3 4 7 4 2 2 2 3 2 2 3 4 5 4 4 4 4 5 6 7 7 8 9 10
9 7 6 7 8 8 8 8 7 10 18 16 15 13 13 7 9 8 9 6 5 6 4 1 0 1 1 2 2 2 1 1 3 5 5 5 5 6 7 6 7 9 9
7 8 8 7 7 7 8 8 7 7 9 9 17 14 17 14 11 10 11 7 2 3 2 3 3 2 2 2 1 1 2 2 3 6 6 5 5 6 6 6 5 8 8
5 5 6 6 7 8 7 7 7 8 7 5 3 11 14 16 13 12 14 3 4 3 3 3 3 3 3 3 3 2 2 2 2 2 3 6 6 7 7 6 7 9 9
2 5 6 5 4 6 6 7 8 8 8 8 7 8 6 5 7 7 4 5 3 3 4 4 4 4 3 3 4 3 3 3 2 3 3 3 4 6 8 8 7 8 6
2 4 8 5 4 7 6 8 8 8 9 8 9 8 16 11 11 9 8 7 7 6 6 5 5 4 4 3 4 3 3 3 3 4 4 3 3 5 4 6 7 7 7
5 6 3 3 7 6 7 7 7 8 9 9 7 6 22 10 8 8 8 8 7 7 6 6 6 6 7 6 5 5 5 5 4 4 4 4 6 6 6 6 6 6 5
7 5 3 7 6 6 7 7 8 8 9 9 7 7 9 10 9 9 9 8 7 7 6 6 6 5 4 5 4 6 7 7 6 6 7 5 5 6 6 7 8 7 5
8 6 9 8 6 8 9 9 9 11 9 8 9 9 10 11 10 10 8 8 8 7 7 7 6 8 6 5 5 4 5 4 5 7 9 8 7 6 6 6 4 6 7
7 5 7 7 7 8 8 8 9 8 9 9 8 10 10 10 9 9 8 8 8 8 8 8 6 9 9 10 8 8 8 11 7 7 6 7 9 9 7 7 8 6 7
6 7 8 7 8 8 10 8 9 8 9 8 8 9 10 9 8 8 8 9 8 8 9 7 8 11 11 8 9 9 11 12 10 8 8 9 10 7 7 8 10 7 8
Wind_Direction
177 170 171 181 182 186 189 188 185 172 199 244 263 271 277 287 291 282 286 298 304 302 303 304 300 299 291 286 281 278 278 273 272 281 273 271 272 277 284 285 286 278 257
180 169 173 163 176 185 192 191 180 185 207 238 265 272 281 290 290 289 300 304 305 305 312 313 306 302 299 291 283 269 266 278 284 292 279 272 270 286 277 269 278 277 274
165 166 164 177 181 191 194 184 175 180 214 244 259 275 293 294 293 291 289 301 303 311 317 308 304 310 304 301 312 276 272 280 274 284 284 278 278 291 279 259 256 255 292
169 172 176 186 185 184 184 176 176 183 206 231 251 269 282 294 291 286 300 307 315 316 307 310 310 311 307 316 314 285 283 292 285 271 279 282 284 280 268 257 248 229 27
174 176 187 177 172 175 178 176 182 185 207 228 255 281 290 284 277 301 314 319 324 310 319 322 313 315 306 321 299 287 276 287 297 295 291 286 280 256 264 271 277 71 46
176 183 166 166 169 177 177 179 180 194 212 237 262 282 292 283 315 320 336 345 330 322 334 323 319 321 311 329 313 292 306 284 291 292 296 288 297 282 295 326 75 145 39
171 165 171 170 176 180 173 173 185 190 199 245 277 281 282 273 308 330 339 313 294 296 344 323 324 327 312 325 301 305 318 304 289 285 285 287 282 237 123 31 37 78 50
172 173 169 171 176 170 168 174 174 167 197 233 256 261 273 283 317 330 338 311 298 294 344 314 323 330 332 319 291 300 306 321 325 340 285 273 256 151 118 121 115 95 62
178 178 178 174 173 172 181 178 176 182 209 225 228 270 259 280 319 322 345 278 288 299 329 300 319 333 338 349 323 301 323 15 356 21 35 39 52 65 72 111 108 109 83
182 184 174 172 174 182 180 175 170 191 214 223 264 244 254 262 304 319 340 250 280 299 321 301 332 344 349 353 342 335 333 28 22 27 30 33 33 39 44 43 37 85 109
161 158 168 175 178 172 160 151 173 194 218 243 263 275 268 242 280 320 327 217 235 298 317 304 319 1 354 3 1 11 11 18 20 39 42 49 40 39 41 46 45 45 68
152 165 175 174 167 163 165 163 186 198 210 225 256 279 267 271 253 316 325 356 23 216 301 286 298 3 16 6 21 20 47 53 35 24 50 47 57 53 53 58 61 60 60
158 176 176 167 169 168 169 178 191 201 202 214 205 219 245 267 272 300 313 351 20 144 284 351 18 16 26 15 27 31 21 39 55 62 50 66 63 73 80 73 70 74 64
179 176 164 173 173 173 180 180 195 198 201 207 210 226 226 247 242 251 251 298 28 62 40 13 44 46 43 40 19 29 13 30 49 52 58 54 55 58 60 62 78 77 73
176 176 181 184 184 184 195 191 202 211 194 191 209 196 181 228 225 199 191 189 200 105 85 25 8 6 9 19 10 37 25 24 42 23 53 58 57 63 61 64 67 73 83
182 183 186 183 189 192 191 204 224 226 218 225 224 192 207 214 197 214 175 174 135 135 55 40 15 44 346 4 28 358 54 42 30 39 54 62 69 76 82 79 82 83 91
196 184 181 191 189 194 190 198 211 221 230 233 223 212 207 194 204 206 184 141 138 112 103 89 108 115 98 15 360 45 42 35 80 69 78 71 76 80 86 88 97 100 96
208 185 184 193 196 191 197 199 200 195 202 210 223 211 218 214 205 208 199 155 66 22 125 155 172 202 143 131 86 33 17 28 45 103 87 74 81 90 92 88 89 105 108
208 209 190 181 195 197 191 197 199 201 207 196 179 217 207 212 207 202 202 178 165 197 174 160 170 185 179 147 130 97 68 58 50 67 95 118 112 106 89 83 87 88 92
230 232 193 169 194 201 194 200 206 207 208 206 200 206 180 143 186 197 196 187 180 181 176 169 183 166 179 162 151 141 112 83 60 63 63 68 95 117 121 123 119 117 103
245 240 219 141 197 220 196 210 211 206 214 213 216 190 186 193 199 196 191 192 191 174 187 172 169 174 163 168 143 126 124 124 117 110 100 82 78 96 82 100 106 108 116
283 251 235 184 207 210 210 203 207 210 221 223 214 195 199 202 201 194 192 187 187 183 169 172 170 180 171 171 165 149 154 151 145 127 117 112 113 109 111 106 104 104 107
284 270 276 241 212 210 211 209 208 211 221 225 218 201 201 203 205 195 191 183 172 176 162 166 167 169 175 166 168 161 162 178 167 145 134 127 125 125 128 127 130 124 119
268 279 258 248 227 217 219 217 215 214 215 218 222 216 206 208 204 200 184 171 165 168 171 160 175 171 166 162 164 171 144 142 153 148 139 138 131 122 114 110 96 105 106
261 248 247 245 235 233 228 219 220 214 215 217 212 223 220 210 199 191 179 171 165 164 173 162 159 168 165 162 167 164 155 151 149 138 127 128 132 127 125 123 124 113 117
283 276 272 272 246 232 232 225 222 208 215 215 216 218 219 209 194 186 173 172 165 170 165 165 165 166 159 161 157 154 147 147 145 137 132 134 135 128 125 130 134 135 134